Location: Unspecified
(0.0000°N, 0.0000°E)
Time: 07:10:14
(UTC+00:00)

Envisat - Pass Details

Date: 29 September 2018
Orbit: 764 x 766 km, 98.1° (Epoch: 25 August)

Event Time Altitude Azimuth Distance (km) Brightness Sun altitude
Rises 19:19:29 0° 164° (SSE) 3,227 6.1 -22.3°
Reaches altitude 10° 19:21:48 10° 162° (SSE) 2,299 5.3 -22.9°
Maximum altitude 19:26:51 70° 78° (ENE) 809 2.8 -24.1°
Drops below altitude 10° 19:31:52 10° 355° (N) 2,289 5.5 -25.4°
Sets 19:34:10 0° 353° (N) 3,213 6.3 -26.0°
